• Join FlightAware (Why Join?)
  • Login
  • US Flag GB Flag 
14:06 EDT


 

Airport Tracker/Info


-or-


 

Live Flight TrackerFlight Track Log ✈ CTL13 ✈ 28-Aug-2013 ✈ KEYE - KMDW

Flight Track Log - Related Links

Times and Time Zones

All times are in EDT time to prevent confusion due to time zone crossing. See the CTL13 flight status page for this flight to view local times or setup timezone preferences in your user account.

Time Position Orientation Groundspeed Altitude Reporting Facility
EDT Latitude Longitude Course Direction KTS MPH feet Rate Location/Type
20:16 39.9000 -86.3500 323° Northwest 142 163 2,100  Level Indianapolis TRACON
20:18 39.9333 -86.3833 323° Northwest 138 159 2,800 540 Climbing Indianapolis TRACON
20:19 39.9500 -86.4167 303° West 132 152 3,300 480 Climbing Indianapolis TRACON
20:20 40.0000 -86.4333 346° North 131 151 3,900 540 Climbing Indianapolis TRACON
20:21 40.0247 -86.4733 309° West 132 152 4,600 600 Climbing Indianapolis Center
20:22 40.0517 -86.4997 323° Northwest 127 146 5,300 600 Climbing Indianapolis Center
20:23 40.0792 -86.5261 324° Northwest 123 142 5,900 360 Climbing Indianapolis Center
20:24 40.1072 -86.5558 321° Northwest 126 145 6,100 60 Climbing Indianapolis Center
20:25 40.1403 -86.5892 322° Northwest 137 158 6,100 -60 Level Indianapolis Center
20:26 40.1819 -86.6331 321° Northwest 156 180 6,000 -60 Descending Chicago Center
20:27 40.2150 -86.6664 322° Northwest 153 176 6,000  Level Chicago Center
20:28 40.2469 -86.7039 318° Northwest 154 177 6,100  Climbing Chicago Center
20:29 40.2844 -86.7450 320° Northwest 152 175 6,100  Level Chicago Center
20:30 40.3125 -86.7769 319° Northwest 151 174 6,100  Level Chicago Center
20:31 40.3467 -86.8144 320° Northwest 153 176 6,100  Level Chicago Center
20:32 40.3806 -86.8553 317° Northwest 152 175 6,100 -60 Level Chicago Center
20:33 40.4106 -86.8869 321° Northwest 152 175 6,000 -60 Descending Chicago Center
20:34 40.4406 -86.9217 319° Northwest 150 173 6,000  Level Chicago Center
20:35 40.4747 -86.9567 322° Northwest 148 170 6,000  Level Chicago Center
20:36 40.5067 -86.9944 318° Northwest 150 173 6,000  Level Chicago Center
20:37 40.5369 -87.0239 324° Northwest 149 171 6,100  Climbing Chicago Center
20:38 40.5714 -87.0481 332° Northwest 149 171 6,100  Level Chicago Center
20:39 40.6164 -87.0731 337° Northwest 153 176 6,100  Level Chicago Center
20:41 40.6661 -87.1006 337° Northwest 151 174 6,100  Level Chicago Center
20:42 40.7133 -87.1258 338° Northwest 153 176 6,100 -60 Level Chicago Center
20:43 40.7519 -87.1486 336° Northwest 153 176 6,000  Descending Chicago Center
20:44 40.7914 -87.1756 333° Northwest 158 182 6,100  Climbing Chicago Center
20:45 40.8292 -87.2006 333° Northwest 155 178 6,100 -60 Level Chicago Center
20:46 40.8686 -87.2233 336° Northwest 156 180 6,000 -120 Descending Chicago Center
20:47 40.9175 -87.2528 336° Northwest 161 185 5,900  Descending Chicago Center
20:48 40.9575 -87.2750 337° Northwest 158 182 6,000 60 Climbing Chicago Center
20:49 40.9969 -87.2994 335° Northwest 158 182 6,100 -180 Climbing Chicago Center
20:50 41.0367 -87.3239 335° Northwest 157 181 5,700 -420 Descending Chicago Center
20:51 41.0811 -87.3511 335° Northwest 170 196 5,300 -480 Descending Chicago Center
20:52 41.1331 -87.3853 334° Northwest 175 201 4,800 -540 Descending Chicago Center
20:53 41.1775 -87.4078 339° North 172 198 4,300 -420 Descending Chicago Center
20:54 41.2231 -87.4297 340° North 174 200 4,000 -180 Descending Chicago Center
20:55 41.2647 -87.4506 339° North 170 196 4,000  Level Chicago Center
20:56 41.3056 -87.4708 340° North 164 189 4,100  Climbing Chicago Center
20:57 41.3528 -87.4964 338° Northwest 158 182 4,000 -60 Descending Chicago Center
20:58 41.3928 -87.5169 339° North 156 180 4,000  Level Chicago Center
20:59 41.4325 -87.5414 335° Northwest 157 181 4,000  Level Chicago Center
21:00 41.4589 -87.5933 304° West 178 205 4,000  Level Chicago Center
21:01 41.4867 -87.6403 308° West 170 196 4,000  Level Chicago Center
21:02 41.5203 -87.7000 307° West 168 193 4,000  Level Chicago Center
21:03 41.5497 -87.7497 308° West 170 196 4,000 -180 Level Chicago Center
21:04 41.5592 -87.8169 281° West 184 212 3,700 -420 Descending Chicago Center
21:05 41.5733 -87.8817 286° West 185 213 3,200 -480 Descending Chicago Center
21:06 41.6119 -87.9361 313° West 183 211 2,700 -300 Descending Chicago Center
21:07 41.6531 -87.9136 22° Northeast 171 197 2,600 -120 Descending Chicago Center
21:09 41.6864 -87.8764 40° Northeast 162 186 2,500 -180 Descending Chicago Center
21:10 41.7194 -87.8375 41° Northeast 160 184 2,300 -480 Descending Chicago Center
21:11 41.7514 -87.7964 44° Northeast 160 184 1,600 -600 Descending Chicago Center
21:12 41.7719 -87.7675 46° Northeast 129 148 1,100 -540 Descending Chicago Center